QPF
0.01 0.01 0.01 0.02 0.02 0.01 0.02 0.03 0.02 0.01 0.01 0.01 0.02 0.02 0.01 0.00 0.00 0.00 0.00 0.01 0.01 0.03 0.03 0.01 0.00 0.01 0.01 0.02 0.03 0.04 0.05 0.08 0.09 0.08 0.07 0.07 0.10 0.14
0.01 0.01 0.01 0.01 0.01 0.01 0.02 0.03 0.03 0.02 0.01 0.01 0.01 0.01 0.00 0.00 0.00 0.00 0.00 0.00 0.01 0.01 0.02 0.01 0.00 0.00 0.00 0.01 0.01 0.03 0.03 0.04 0.08 0.08 0.07 0.07 0.09 0.11
0.00 0.01 0.01 0.00 0.00 0.01 0.02 0.02 0.03 0.02 0.01 0.01 0.01 0.00 0.00 0.00 0.00 0.00 0.00 0.00 0.00 0.01 0.01 0.01 0.00 0.00 0.00 0.01 0.01 0.02 0.03 0.04 0.06 0.08 0.07 0.08 0.12 0.15
0.00 0.01 0.01 0.00 0.00 0.02 0.04 0.03 0.03 0.02 0.00 0.01 0.01 0.00 0.00 0.00 0.00 0.00 0.00 0.00 0.01 0.01 0.01 0.00 0.00 0.00 0.01 0.01 0.01 0.02 0.02 0.03 0.05 0.07 0.08 0.09 0.09 0.09
0.00 0.00 0.01 0.00 0.00 0.01 0.01 0.02 0.01 0.01 0.00 0.00 0.00 0.00 0.00 0.00 0.01 0.01 0.01 0.01 0.02 0.02 0.01 0.00 0.00 0.00 0.00 0.01 0.01 0.02 0.02 0.02 0.03 0.05 0.06 0.07 0.09 0.09
0.01 0.01 0.01 0.00 0.00 0.01 0.01 0.01 0.00 0.00 0.00 0.00 0.00 0.00 0.00 0.01 0.01 0.02 0.01 0.02 0.02 0.02 0.00 0.00 0.00 0.00 0.00 0.00 0.01 0.02 0.02 0.02 0.02 0.03 0.03 0.04 0.06 0.07
0.01 0.01 0.00 0.00 0.00 0.01 0.01 0.01 0.00 0.00 0.00 0.00 0.00 0.00 0.00 0.01 0.02 0.02 0.03 0.03 0.02 0.02 0.01 0.00 0.00 0.00 0.00 0.00 0.01 0.02 0.03 0.02 0.02 0.02 0.02 0.03 0.04 0.06
0.00 0.00 0.00 0.00 0.00 0.01 0.00 0.00 0.00 0.00 0.00 0.00 0.00 0.00 0.01 0.01 0.02 0.02 0.03 0.02 0.02 0.02 0.01 0.00 0.00 0.00 0.00 0.00 0.01 0.02 0.03 0.02 0.02 0.02 0.02 0.02 0.03 0.04
0.00 0.00 0.00 0.00 0.00 0.00 0.00 0.00 0.00 0.00 0.00 0.00 0.00 0.00 0.01 0.02 0.02 0.02 0.02 0.02 0.02 0.01 0.01 0.01 0.00 0.00 0.00 0.00 0.01 0.02 0.03 0.03 0.03 0.02 0.02 0.02 0.02 0.03
0.00 0.00 0.00 0.00 0.00 0.00 0.00 0.00 0.00 0.00 0.00 0.00 0.00 0.00 0.01 0.01 0.02 0.02 0.03 0.03 0.02 0.01 0.01 0.01 0.00 0.00 0.00 0.01 0.01 0.01 0.01 0.01 0.02 0.02 0.02 0.02 0.03 0.03
0.00 0.00 0.00 0.00 0.00 0.00 0.00 0.00 0.00 0.00 0.00 0.00 0.00 0.00 0.01 0.01 0.01 0.02 0.02 0.02 0.02 0.02 0.02 0.01 0.01 0.00 0.00 0.01 0.00 0.00 0.00 0.00 0.00 0.00 0.01 0.01 0.01 0.01
0.00 0.00 0.00 0.00 0.00 0.00 0.00 0.00 0.00 0.01 0.00 0.00 0.00 0.00 0.00 0.00 0.01 0.01 0.01 0.01 0.01 0.01 0.01 0.02 0.01 0.01 0.00 0.00 0.00 0.00 0.00 0.00 0.00 0.00 0.00 0.00 0.00 0.00
0.00 0.00 0.00 0.00 0.00 0.00 0.00 0.00 0.00 0.00 0.01 0.00 0.01 0.00 0.00 0.00 0.00 0.00 0.00 0.00 0.00 0.00 0.00 0.00 0.01 0.00 0.00 0.00 0.00 0.00 0.00 0.00 0.00 0.00 0.00 0.00 0.00 0.00
0.00 0.00 0.00 0.00 0.00 0.00 0.00 0.00 0.00 0.00 0.00 0.00 0.00 0.00 0.00 0.00 0.00 0.00 0.00 0.00 0.00 0.00 0.00 0.00 0.00 0.00 0.00 0.00 0.00 0.00 0.00 0.00 0.00 0.00 0.00 0.00 0.00 0.00
0.00 0.00 0.00 0.00 0.00 0.00 0.00 0.00 0.00 0.00 0.00 0.00 0.00 0.00 0.00 0.00 0.00 0.00 0.00 0.00 0.00 0.00 0.00 0.00 0.00 0.00 0.00 0.00 0.00 0.00 0.00 0.00 0.00 0.00 0.00 0.00 0.01 0.00
0.00 0.00 0.00 0.00 0.00 0.00 0.00 0.00 0.00 0.00 0.00 0.00 0.00 0.00 0.00 0.00 0.00 0.00 0.00 0.00 0.00 0.00 0.00 0.00 0.00 0.00 0.00 0.00 0.00 0.00 0.00 0.00 0.00 0.00 0.00 0.00 0.00 0.01
0.01 0.00 0.00 0.00 0.00 0.00 0.00 0.00 0.00 0.00 0.00 0.00 0.00 0.00 0.00 0.00 0.00 0.00 0.00 0.00 0.00 0.00 0.00 0.00 0.00 0.00 0.00 0.00 0.01 0.00 0.00 0.00 0.00 0.00 0.00 0.00 0.00 0.00
0.00 0.00 0.00 0.00 0.00 0.00 0.00 0.00 0.00 0.00 0.00 0.00 0.00 0.00 0.00 0.00 0.00 0.00 0.00 0.00 0.00 0.00 0.00 0.00 0.00 0.00 0.00 0.00 0.00 0.00 0.00 0.01 0.00 0.00 0.00 0.00 0.00 0.00
0.00 0.00 0.00 0.00 0.00 0.00 0.00 0.00 0.00 0.00 0.00 0.00 0.00 0.00 0.00 0.00 0.00 0.00 0.00 0.00 0.00 0.00 0.00 0.00 0.00 0.01 0.01 0.01 0.00 0.00 0.00 0.00 0.00 0.00 0.00 0.01 0.00 0.00
0.00 0.00 0.00 0.00 0.00 0.00 0.00 0.00 0.00 0.00 0.00 0.00 0.00 0.00 0.00 0.00 0.00 0.00 0.00 0.00 0.00 0.00 0.00 0.00 0.00 0.01 0.01 0.01 0.01 0.00 0.00 0.00 0.01 0.01 0.01 0.01 0.01 0.00
0.00 0.00 0.00 0.00 0.00 0.00 0.00 0.00 0.00 0.00 0.00 0.00 0.00 0.00 0.00 0.00 0.00 0.00 0.00 0.00 0.00 0.00 0.00 0.00 0.00 0.00 0.01 0.01 0.01 0.00 0.00 0.00 0.01 0.01 0.01 0.01 0.00 0.00
0.00 0.01 0.01 0.01 0.01 0.01 0.01 0.01 0.01 0.01 0.01 0.00 0.00 0.01 0.01 0.01 0.01 0.01 0.01 0.01 0.01 0.01 0.01 0.00 0.00 0.01 0.01 0.01 0.01 0.01 0.00 0.00 0.00 0.00 0.00 0.00 0.01 0.00
0.01 0.01 0.02 0.02 0.02 0.02 0.02 0.02 0.02 0.01 0.01 0.01 0.01 0.01 0.01 0.01 0.01 0.01 0.01 0.01 0.01 0.01 0.01 0.01 0.01 0.01 0.01 0.01 0.01 0.01 0.00 0.00 0.00 0.00 0.00 0.00 0.00 0.00
MSLP
1020.09 1020.24 1020.47 1020.76 1021.11 1021.49 1021.87 1022.22 1022.53 1022.80 1023.00 1023.15 1023.26 1023.32 1023.36 1023.37 1023.36 1023.34 1023.30 1023.24 1023.19 1023.13 1023.08 1023.05 1023.04 1023.04 1023.05 1023.08 1023.11 1023.14 1023.16 1023.19 1023.20 1023.21 1023.21 1023.20 1023.18 1023.15
1020.26 1020.37 1020.53 1020.75 1021.02 1021.32 1021.64 1021.96 1022.26 1022.53 1022.76 1022.96 1023.12 1023.25 1023.35 1023.41 1023.45 1023.46 1023.45 1023.43 1023.40 1023.38 1023.36 1023.36 1023.37 1023.40 1023.43 1023.47 1023.51 1023.54 1023.57 1023.58 1023.58 1023.58 1023.56 1023.53 1023.49 1023.44
1020.53 1020.60 1020.71 1020.87 1021.06 1021.29 1021.54 1021.81 1022.08 1022.34 1022.59 1022.82 1023.02 1023.18 1023.32 1023.41 1023.48 1023.51 1023.52 1023.51 1023.50 1023.49 1023.49 1023.50 1023.53 1023.56 1023.61 1023.66 1023.70 1023.74 1023.76 1023.77 1023.77 1023.76 1023.73 1023.70 1023.64 1023.58
1020.85 1020.91 1020.99 1021.09 1021.22 1021.39 1021.58 1021.80 1022.03 1022.28 1022.52 1022.76 1022.97 1023.16 1023.31 1023.42 1023.49 1023.53 1023.53 1023.52 1023.50 1023.48 1023.47 1023.47 1023.49 1023.52 1023.57 1023.61 1023.65 1023.68 1023.71 1023.72 1023.72 1023.71 1023.70 1023.66 1023.61 1023.55
1021.18 1021.24 1021.30 1021.37 1021.47 1021.58 1021.73 1021.90 1022.10 1022.32 1022.56 1022.78 1023.00 1023.18 1023.33 1023.43 1023.49 1023.51 1023.49 1023.45 1023.41 1023.36 1023.32 1023.30 1023.29 1023.29 1023.31 1023.33 1023.35 1023.37 1023.39 1023.40 1023.42 1023.42 1023.42 1023.41 1023.38 1023.34
1021.43 1021.51 1021.57 1021.63 1021.69 1021.78 1021.90 1022.04 1022.22 1022.41 1022.62 1022.83 1023.03 1023.19 1023.32 1023.40 1023.44 1023.43 1023.39 1023.32 1023.23 1023.15 1023.07 1023.00 1022.94 1022.90 1022.87 1022.85 1022.84 1022.83 1022.84 1022.85 1022.87 1022.90 1022.93 1022.95 1022.96 1022.95
1021.54 1021.63 1021.70 1021.76 1021.82 1021.90 1022.00 1022.13 1022.28 1022.45 1022.64 1022.82 1022.99 1023.13 1023.23 1023.29 1023.29 1023.26 1023.19 1023.09 1022.97 1022.85 1022.73 1022.61 1022.50 1022.40 1022.31 1022.23 1022.17 1022.13 1022.11 1022.11 1022.14 1022.19 1022.25 1022.31 1022.37 1022.40
1021.47 1021.56 1021.64 1021.71 1021.78 1021.86 1021.96 1022.08 1022.22 1022.37 1022.53 1022.68 1022.82 1022.93 1023.00 1023.03 1023.02 1022.97 1022.88 1022.76 1022.63 1022.48 1022.32 1022.16 1022.00 1021.84 1021.68 1021.54 1021.42 1021.33 1021.27 1021.26 1021.29 1021.35 1021.44 1021.54 1021.64 1021.71
1021.20 1021.30 1021.38 1021.46 1021.55 1021.64 1021.74 1021.86 1021.99 1022.13 1022.26 1022.38 1022.49 1022.57 1022.61 1022.62 1022.60 1022.54 1022.45 1022.33 1022.19 1022.04 1021.86 1021.67 1021.47 1021.25 1021.04 1020.83 1020.65 1020.51 1020.41 1020.37 1020.38 1020.45 1020.56 1020.69 1020.82 1020.93
1020.78 1020.88 1020.97 1021.06 1021.16 1021.27 1021.38 1021.49 1021.61 1021.73 1021.84 1021.93 1022.00 1022.05 1022.07 1022.06 1022.03 1021.98 1021.90 1021.80 1021.68 1021.53 1021.36 1021.15 1020.92 1020.68 1020.41 1020.15 1019.92 1019.72 1019.57 1019.49 1019.49 1019.54 1019.65 1019.80 1019.94 1020.07
1020.28 1020.37 1020.47 1020.58 1020.69 1020.80 1020.92 1021.03 1021.14 1021.23 1021.31 1021.37 1021.41 1021.42 1021.42 1021.40 1021.37 1021.32 1021.26 1021.18 1021.09 1020.96 1020.81 1020.61 1020.38 1020.11 1019.81 1019.52 1019.23 1018.99 1018.80 1018.68 1018.63 1018.67 1018.76 1018.89 1019.03 1019.15
1019.77 1019.87 1019.98 1020.09 1020.21 1020.33 1020.45 1020.55 1020.64 1020.71 1020.76 1020.78 1020.78 1020.76 1020.73 1020.69 1020.65 1020.61 1020.56 1020.51 1020.44 1020.35 1020.21 1020.03 1019.81 1019.53 1019.23 1018.91 1018.59 1018.31 1018.08 1017.92 1017.84 1017.83 1017.88 1017.98 1018.09 1018.18
1019.31 1019.42 1019.53 1019.65 1019.78 1019.90 1020.01 1020.10 1020.17 1020.21 1020.22 1020.20 1020.16 1020.11 1020.04 1019.98 1019.92 1019.87 1019.83 1019.79 1019.74 1019.67 1019.56 1019.40 1019.19 1018.92 1018.62 1018.29 1017.96 1017.65 1017.39 1017.20 1017.07 1017.02 1017.02 1017.07 1017.12 1017.17
1018.93 1019.05 1019.16 1019.29 1019.41 1019.52 1019.62 1019.69 1019.73 1019.75 1019.72 1019.66 1019.58 1019.49 1019.38 1019.29 1019.20 1019.14 1019.08 1019.04 1018.99 1018.93 1018.83 1018.68 1018.49 1018.24 1017.95 1017.63 1017.30 1016.99 1016.72 1016.49 1016.33 1016.23 1016.17 1016.15 1016.14 1016.12
1018.62 1018.74 1018.86 1018.97 1019.08 1019.18 1019.26 1019.31 1019.33 1019.30 1019.25 1019.15 1019.03 1018.90 1018.76 1018.62 1018.50 1018.40 1018.32 1018.25 1018.19 1018.12 1018.02 1017.89 1017.71 1017.48 1017.21 1016.91 1016.60 1016.29 1016.01 1015.77 1015.58 1015.43 1015.32 1015.23 1015.15 1015.05
1018.36 1018.48 1018.59 1018.68 1018.77 1018.84 1018.89 1018.92 1018.90 1018.86 1018.77 1018.65 1018.50 1018.33 1018.15 1017.97 1017.81 1017.67 1017.55 1017.44 1017.35 1017.26 1017.15 1017.01 1016.84 1016.64 1016.39 1016.12 1015.84 1015.55 1015.28 1015.04 1014.82 1014.63 1014.47 1014.32 1014.16 1013.99
1018.13 1018.24 1018.32 1018.39 1018.45 1018.48 1018.50 1018.49 1018.45 1018.38 1018.27 1018.13 1017.95 1017.76 1017.55 1017.34 1017.13 1016.95 1016.78 1016.64 1016.50 1016.38 1016.25 1016.11 1015.94 1015.76 1015.54 1015.30 1015.05 1014.79 1014.54 1014.29 1014.06 1013.84 1013.63 1013.43 1013.21 1012.97
1017.94 1018.02 1018.06 1018.09 1018.11 1018.10 1018.08 1018.04 1017.98 1017.88 1017.76 1017.60 1017.41 1017.20 1016.97 1016.73 1016.50 1016.27 1016.06 1015.87 1015.69 1015.53 1015.38 1015.23 1015.07 1014.89 1014.70 1014.50 1014.28 1014.05 1013.81 1013.57 1013.33 1013.09 1012.84 1012.59 1012.31 1012.02
1017.81 1017.84 1017.85 1017.84 1017.80 1017.76 1017.70 1017.62 1017.53 1017.42 1017.29 1017.12 1016.93 1016.71 1016.46 1016.21 1015.94 1015.68 1015.43 1015.20 1014.98 1014.79 1014.61 1014.45 1014.29 1014.13 1013.96 1013.78 1013.58 1013.37 1013.15 1012.91 1012.66 1012.40 1012.12 1011.82 1011.50 1011.17
1017.77 1017.77 1017.74 1017.68 1017.60 1017.51 1017.42 1017.31 1017.20 1017.08 1016.93 1016.76 1016.57 1016.34 1016.08 1015.81 1015.52 1015.23 1014.95 1014.68 1014.43 1014.21 1014.01 1013.83 1013.67 1013.51 1013.35 1013.19 1013.01 1012.81 1012.59 1012.35 1012.08 1011.79 1011.48 1011.14 1010.78 1010.41
1017.88 1017.85 1017.78 1017.68 1017.57 1017.44 1017.32 1017.19 1017.06 1016.92 1016.77 1016.59 1016.38 1016.15 1015.88 1015.59 1015.28 1014.96 1014.65 1014.35 1014.07 1013.82 1013.60 1013.41 1013.24 1013.08 1012.93 1012.76 1012.58 1012.38 1012.15 1011.89 1011.59 1011.27 1010.92 1010.54 1010.14 1009.73
1018.14 1018.09 1018.00 1017.88 1017.74 1017.59 1017.44 1017.30 1017.15 1017.00 1016.83 1016.64 1016.42 1016.17 1015.89 1015.57 1015.24 1014.89 1014.54 1014.21 1013.91 1013.63 1013.39 1013.18 1013.00 1012.83 1012.66 1012.49 1012.30 1012.07 1011.82 1011.52 1011.19 1010.82 1010.43 1010.01 1009.57 1009.12
1018.55 1018.49 1018.38 1018.25 1018.10 1017.95 1017.79 1017.63 1017.47 1017.30 1017.12 1016.91 1016.67 1016.39 1016.08 1015.73 1015.36 1014.98 1014.60 1014.24 1013.90 1013.60 1013.34 1013.11 1012.90 1012.72 1012.53 1012.34 1012.12 1011.86 1011.57 1011.23 1010.86 1010.44 1009.99 1009.52 1009.03 1008.53
Thickness
5706 5705 5703 5702 5702 5701 5699 5696 5689 5682 5680 5684 5685 5687 5687 5687 5687 5687 5688 5689 5690 5691 5692 5693 5693 5694 5695 5696 5696 5697 5697 5698 5698 5699 5700 5700 5701 5701
5704 5703 5701 5700 5699 5698 5697 5696 5694 5688 5681 5682 5683 5684 5684 5684 5684 5684 5684 5684 5685 5686 5687 5687 5688 5688 5689 5689 5689 5690 5690 5691 5693 5693 5694 5695 5696 5696
5702 5700 5697 5697 5695 5694 5693 5692 5690 5687 5680 5679 5681 5681 5681 5680 5679 5680 5680 5680 5681 5682 5682 5682 5682 5682 5683 5683 5683 5683 5684 5685 5685 5686 5689 5690 5691 5690
5699 5697 5694 5694 5691 5690 5689 5687 5686 5685 5680 5675 5676 5676 5676 5676 5676 5676 5676 5676 5677 5677 5677 5677 5677 5677 5677 5677 5676 5677 5677 5678 5678 5678 5680 5682 5682 5682
5697 5694 5692 5690 5687 5686 5685 5683 5682 5682 5679 5675 5672 5673 5673 5673 5672 5671 5672 5672 5673 5673 5672 5672 5672 5672 5671 5671 5670 5670 5670 5670 5670 5670 5670 5671 5671 5671
5695 5692 5690 5687 5684 5683 5682 5679 5678 5676 5675 5672 5669 5669 5668 5669 5668 5666 5665 5667 5668 5669 5668 5667 5667 5666 5666 5665 5664 5663 5663 5662 5662 5662 5661 5661 5661 5661
5691 5689 5686 5684 5682 5680 5678 5675 5674 5671 5669 5667 5665 5664 5663 5662 5661 5662 5660 5661 5662 5663 5662 5662 5661 5660 5659 5658 5657 5656 5655 5654 5654 5653 5653 5652 5652 5652
5687 5685 5683 5680 5678 5676 5675 5673 5671 5667 5665 5662 5660 5659 5659 5659 5658 5658 5655 5654 5653 5656 5656 5655 5655 5654 5652 5651 5650 5649 5648 5647 5646 5644 5643 5643 5642 5642
5684 5682 5680 5677 5674 5672 5670 5669 5666 5665 5664 5660 5657 5656 5655 5655 5654 5652 5650 5648 5647 5649 5648 5646 5648 5646 5646 5645 5644 5642 5640 5639 5637 5636 5635 5633 5632 5632
5681 5679 5676 5672 5670 5668 5665 5663 5660 5659 5659 5657 5655 5653 5652 5651 5649 5647 5645 5644 5644 5642 5641 5638 5639 5638 5638 5637 5636 5634 5632 5630 5628 5627 5625 5624 5623 5622
5676 5675 5672 5668 5667 5664 5661 5657 5655 5653 5652 5651 5649 5647 5646 5644 5642 5639 5636 5633 5631 5632 5632 5629 5629 5629 5629 5628 5627 5625 5623 5620 5618 5617 5615 5614 5613 5612
5671 5670 5668 5665 5662 5659 5655 5652 5648 5647 5646 5644 5642 5640 5638 5636 5634 5631 5627 5623 5621 5621 5623 5621 5619 5618 5617 5619 5617 5615 5612 5611 5609 5607 5605 5603 5602 5600
5665 5663 5661 5660 5657 5654 5651 5647 5644 5642 5640 5637 5634 5632 5631 5628 5626 5624 5621 5617 5613 5612 5613 5611 5608 5606 5603 5605 5605 5604 5602 5600 5599 5597 5595 5593 5591 5588
5660 5658 5656 5654 5652 5648 5645 5642 5639 5636 5632 5629 5626 5623 5621 5620 5618 5616 5613 5610 5608 5605 5603 5600 5597 5594 5591 5591 5591 5592 5591 5589 5588 5587 5584 5582 5580 5577
5655 5654 5651 5649 5645 5642 5639 5636 5632 5627 5623 5620 5618 5616 5614 5612 5610 5607 5604 5601 5599 5596 5593 5590 5587 5584 5581 5579 5579 5579 5577 5577 5576 5574 5573 5570 5567 5565
5647 5645 5644 5641 5637 5634 5631 5627 5623 5620 5616 5613 5610 5608 5606 5603 5600 5597 5593 5590 5587 5586 5584 5580 5577 5574 5571 5569 5567 5566 5564 5563 5564 5561 5560 5558 5555 5552
5641 5637 5634 5631 5627 5625 5622 5619 5616 5612 5608 5605 5602 5598 5596 5593 5590 5587 5584 5580 5576 5575 5572 5570 5568 5565 5562 5559 5556 5555 5553 5551 5549 5547 5545 5544 5543 5539
5634 5630 5627 5624 5621 5618 5615 5612 5609 5605 5602 5598 5594 5590 5587 5583 5580 5577 5573 5569 5566 5564 5561 5558 5555 5552 5550 5550 5546 5543 5541 5538 5537 5534 5530 5528 5529 5527
5625 5623 5620 5618 5615 5611 5608 5605 5601 5598 5594 5590 5586 5582 5578 5574 5570 5566 5563 5559 5556 5554 5551 5547 5542 5537 5534 5537 5539 5533 5527 5526 5523 5521 5518 5514 5514 5515
5617 5615 5612 5609 5606 5603 5600 5596 5592 5588 5584 5580 5576 5572 5568 5563 5559 5556 5552 5548 5546 5543 5540 5537 5532 5528 5524 5524 5526 5526 5519 5512 5509 5507 5506 5504 5503 5502
5609 5606 5603 5600 5597 5593 5590 5586 5582 5578 5574 5570 5566 5562 5558 5553 5549 5546 5542 5538 5535 5532 5530 5528 5526 5521 5517 5513 5511 5513 5509 5503 5498 5494 5492 5489 5489 5489
5600 5597 5594 5590 5587 5583 5579 5575 5572 5568 5564 5560 5556 5552 5548 5543 5540 5536 5532 5528 5525 5523 5521 5519 5516 5511 5506 5501 5500 5499 5497 5494 5490 5485 5481 5477 5473 5473
5590 5587 5583 5580 5576 5572 5568 5564 5561 5557 5553 5549 5546 5542 5537 5533 5529 5525 5522 5518 5515 5513 5510 5507 5504 5499 5495 5491 5489 5486 5484 5482 5479 5476 5474 5470 5466 5464